{"data":{"norad_id":66951,"epoch":"2026-09-19T05:51:26.000352Z","epoch_age_seconds":190213,"freshness":"STALE","line1":"1 66951U 25286AC  26262.24405093  .00019169  00000+0  57652-3 0  9998","line2":"2 66951  53.1589 175.6573 0001502 109.2744 250.8422 15.34427140 45103","mean_motion":15.3442714,"eccentricity":0.0001502,"inclination_deg":53.1589,"raan_deg":175.6573,"arg_perigee_deg":109.2744,"mean_anomaly_deg":250.8422,"bstar":0.00057652,"rev_number":4510,"period_min":93.846098160125,"perigee_km":461.59509350833,"apogee_km":463.65005768484,"semimajor_km":6840.7595755966,"source":"CELESTRAK","updated_at":"2026-09-21T09:00:36.061353Z"}}